Location: Unspecified
(0.0000°N, 0.0000°E)
Time: 22:09:51
(UTC+00:00)

Envisat - Pass Details

Date: 19 August 2017
Orbit: 764 x 766 km, 98.2° (Epoch: 18 October)

Event Time Altitude Azimuth Distance (km) Brightness Sun altitude
Exits shadow 20:27:04 14° 350° (N) 2,046 5.4 -34.9°
Drops below altitude 10° 20:27:41 10° 349° (N) 2,292 5.7 -35.1°
Sets 20:29:58 0° 349° (N) 3,216 6.5 -35.6°
